Location: Unspecified
(51.0950°N, 12.9690°E)
Time: 17:05:25
(UTC+00:00)

SL-08 RB Rocket - Pass Details

Date: 28 October 2021
Orbit: 646 x 683 km, 97.8° (Epoch: 02 December)

Event Time Altitude Azimuth Distance (km) Brightness Sun altitude
Rises 17:03:17 0° 147° (SSE) 3,002 6.8 -12.1°
Reaches altitude 10° 17:05:33 10° 141° (SE) 2,099 6.0 -12.5°
Maximum altitude 17:09:57 47° 68° (ENE) 904 4.0 -13.2°
Drops below altitude 10° 17:14:24 10° 356° (N) 2,133 6.3 -13.9°
Sets 17:16:43 0° 351° (N) 3,057 7.2 -14.2°
